Location: Zagreb
(45.8000°N, 16.0000°E)
Time: 21:13:31
(UTC+01:00)

deb Explorer IX - Pass Details

Date: 08 October 2020
Orbit: 537 x 1106 km, 38.8° (Epoch: 30 October)

Event Time Altitude Azimuth Distance (km) Brightness Sun altitude
Rises 16:46:26 0° 259° (WSW) 3,545 ? 15.1°
Reaches altitude 10° 16:49:20 10° 252° (WSW) 2,506 ? 14.7°
Maximum altitude 16:54:48 40° 185° (S) 1,125 ? 13.8°
Drops below altitude 10° 16:59:28 10° 116° (ESE) 2,140 ? 13.1°
Sets 17:01:47 0° 109° (ESE) 2,973 ? 12.7°
